| time (UTC) | temp F | wind direction | speed knots | gust knots | rain 1hr in | rain 24hr in | rain mn in | humidity % | barometer mb |
| 20260506214531 | 67 | 206 | 1.7 | 3.5 | 0.00 | 0.22 | 0.22 | 83 | 1007.1 |
| 20260506213033 | 68 | 142 | 1.7 | 6.1 | 0.00 | 0.22 | 0.22 | 82 | 1006.7 |
| 20260506211530 | 66 | 209 | 2.6 | 5.2 | 0.00 | 0.22 | 0.22 | 86 | 1006.6 |
| 20260506210030 | 65 | 198 | 0.9 | 3.5 | 0.00 | 0.22 | 0.22 | 88 | 1006.5 |
| 20260506204533 | 65 | 200 | 0.9 | 5.2 | 0.00 | 0.22 | 0.22 | 89 | 1006.6 |
| 20260506203038 | 64 | 261 | 0.9 | 2.6 | 0.00 | 0.22 | 0.22 | 88 | 1006.6 |
| 20260506201528 | 65 | 240 | 2.6 | 6.1 | 0.00 | 0.22 | 0.22 | 87 | 1006.5 |
| 20260506200031 | 65 | 191 | 2.6 | 7.8 | 0.00 | 0.22 | 0.22 | 87 | 1006.5 |
| 20260506194526 | 64 | 192 | 1.7 | 7.8 | 0.00 | 0.22 | 0.22 | 89 | 1006.6 |
| 20260506193026 | 64 | 209 | 3.5 | 11.3 | 0.00 | 0.22 | 0.22 | 89 | 1006.6 |
| 20260506191524 | 63 | 136 | 2.6 | 8.7 | 0.02 | 0.22 | 0.22 | 92 | 1006.7 |
| 20260506190032 | 62 | 208 | 4.3 | 13.9 | 0.02 | 0.22 | 0.22 | 93 | 1006.8 |
| 20260506184522 | 61 | 187 | 3.5 | 8.7 | 0.02 | 0.22 | 0.22 | 94 | 1007.0 |
| 20260506183020 | 61 | 190 | 5.2 | 14.8 | 0.02 | 0.22 | 0.22 | 94 | 1007.4 |
| 20260506181518 | 61 | 242 | 3.5 | 15.6 | 0.00 | 0.20 | 0.20 | 92 | 1007.5 |
| 20260506180018 | 61 | 178 | 5.2 | 13.9 | 0.00 | 0.20 | 0.20 | 90 | 1007.5 |
| 20260506174518 | 61 | 224 | 3.5 | 10.4 | 0.00 | 0.20 | 0.20 | 90 | 1007.7 |
| 20260506173016 | 61 | 128 | 4.3 | 13.0 | 0.00 | 0.20 | 0.20 | 90 | 1007.5 |
| 20260506171516 | 61 | 199 | 5.2 | 15.6 | 0.01 | 0.20 | 0.20 | 91 | 1007.4 |
| 20260506170014 | 61 | 223 | 5.2 | 12.2 | 0.01 | 0.20 | 0.20 | 91 | 1007.8 |
| 20260506164514 | 61 | 213 | 5.2 | 15.6 | 0.02 | 0.20 | 0.20 | 92 | 1007.7 |
| 20260506163022 | 61 | 175 | 3.5 | 9.6 | 0.03 | 0.20 | 0.20 | 93 | 1007.5 |
| 20260506161512 | 60 | 148 | 3.5 | 10.4 | 0.06 | 0.19 | 0.19 | 93 | 1007.3 |
| 20260506160008 | 60 | 225 | 4.3 | 11.3 | 0.08 | 0.19 | 0.19 | 92 | 1007.9 |
| 20260506154522 | 60 | 218 | 2.6 | 11.3 | 0.09 | 0.18 | 0.18 | 93 | 1008.6 |
| 20260506153003 | 60 | 194 | 2.6 | 7.0 | 0.09 | 0.17 | 0.17 | 92 | 1008.6 |
| 20260506151600 | 61 | 280 | 2.6 | 8.7 | 0.09 | 0.14 | 0.14 | 92 | 1008.9 |
| 20260506150058 | 61 | 217 | 3.5 | 8.7 | 0.09 | 0.11 | 0.11 | 91 | 1008.6 |
| 20260506144557 | 61 | 219 | 3.5 | 7.0 | 0.08 | 0.09 | 0.09 | 91 | 1008.8 |
| 20260506143057 | 61 | 206 | 1.7 | 9.6 | 0.08 | 0.08 | 0.08 | 90 | 1008.6 |
| 20260506141554 | 62 | 234 | 0.9 | 8.7 | 0.05 | 0.05 | 0.05 | 88 | 1008.6 |
| 20260506140051 | 62 | 167 | 1.7 | 8.7 | 0.02 | 0.02 | 0.02 | 87 | 1008.6 |
| 20260506134550 | 63 | 202 | 4.3 | 12.2 | 0.01 | 0.01 | 0.01 | 85 | 1008.5 |
| 20260506133050 | 63 | 213 | 2.6 | 7.0 | 0.00 | 0.00 | 0.00 | 84 | 1008.5 |
| 20260506131547 | 63 | 267 | 1.7 | 7.8 | 0.00 | 0.00 | 0.00 | 84 | 1008.8 |
| 20260506130047 | 63 | 229 | 4.3 | 9.6 | 0.00 | 0.00 | 0.00 | 82 | 1008.8 |
| 20260506124546 | 64 | 198 | 7.0 | 14.8 | 0.00 | 0.00 | 0.00 | 80 | 1008.9 |
| 20260506123041 | 65 | 233 | 6.1 | 13.9 | 0.00 | 0.00 | 0.00 | 78 | 1008.7 |
| 20260506121547 | 65 | 175 | 7.8 | 14.8 | 0.00 | 0.00 | 0.00 | 77 | 1008.6 |
| 20260506120041 | 65 | 166 | 7.8 | 16.5 | 0.00 | 0.00 | 0.00 | 76 | 1008.3 |
| 20260506114541 | 65 | 232 | 7.0 | 15.6 | 0.00 | 0.00 | 0.00 | 77 | 1008.2 |
| 20260506113038 | 65 | 214 | 5.2 | 13.9 | 0.00 | 0.00 | 0.00 | 77 | 1008.1 |
| 20260506111536 | 65 | 203 | 5.2 | 14.8 | 0.00 | 0.00 | 0.00 | 76 | 1008.0 |
| 20260506110037 | 65 | 209 | 7.0 | 19.1 | 0.00 | 0.00 | 0.00 | 76 | 1008.1 |
| 20260506104534 | 65 | 222 | 6.1 | 18.2 | 0.00 | 0.00 | 0.00 | 76 | 1007.7 |
| 20260506103031 | 65 | 213 | 5.2 | 20.0 | 0.00 | 0.00 | 0.00 | 75 | 1007.6 |
| 20260506101530 | 65 | 218 | 7.8 | 16.5 | 0.00 | 0.00 | 0.00 | 75 | 1007.8 |
| 20260506100030 | 66 | 229 | 7.8 | 12.2 | 0.00 | 0.00 | 0.00 | 74 | 1007.7 |
| 20260506094523 | 66 | 254 | 6.1 | 19.1 | 0.00 | 0.00 | 0.00 | 74 | 1007.8 |
| 20260506093022 | 66 | 229 | 6.1 | 18.2 | 0.00 | 0.00 | 0.00 | 74 | 1007.8 |
| 20260506091520 | 66 | 194 | 7.0 | 13.0 | 0.00 | 0.00 | 0.00 | 74 | 1007.7 |
| 20260506090016 | 66 | 212 | 7.0 | 13.0 | 0.00 | 0.00 | 0.00 | 73 | 1007.9 |
| 20260506084517 | 67 | 211 | 7.8 | 15.6 | 0.00 | 0.00 | 0.00 | 72 | 1008.0 |
| 20260506083016 | 67 | 167 | 7.0 | 16.5 | 0.00 | 0.00 | 0.00 | 71 | 1008.0 |
| 20260506081509 | 67 | 214 | 5.2 | 13.0 | 0.00 | 0.00 | 0.00 | 71 | 1008.0 |
| 20260506073006 | 67 | 196 | 5.2 | 10.4 | 0.00 | 0.00 | 0.00 | 68 | 1008.1 |
| 20260506071601 | 67 | 227 | 3.5 | 10.4 | 0.00 | 0.00 | 0.00 | 67 | 1008.2 |
| 20260506061552 | 68 | 212 | 5.2 | 15.6 | 0.00 | 0.00 | 0.00 | 62 | 1008.8 |
| 20260506050104 | 69 | 199 | 1.7 | 7.8 | 0.00 | 0.00 | 0.00 | 58 | 1009.3 |
| 20260506044543 | 69 | 205 | 4.3 | 9.6 | 0.00 | 0.00 | 0.00 | 58 | 1009.2 |
| 20260506043036 | 69 | 209 | 1.7 | 9.6 | 0.00 | 0.00 | 0.00 | 57 | 1009.2 |
| 20260506041549 | 69 | 214 | 1.7 | 9.6 | 0.00 | 0.00 | 0.00 | 57 | 1009.3 |
| 20260506040033 | 69 | 227 | 4.3 | 8.7 | 0.00 | 0.00 | 0.00 | 57 | 1009.2 |
| 20260506034546 | 70 | 209 | 1.7 | 7.8 | 0.00 | 0.00 | 0.00 | 56 | 1009.2 |
| 20260506033031 | 70 | 205 | 3.5 | 8.7 | 0.00 | 0.00 | 0.00 | 56 | 1009.2 |
| 20260506031530 | 70 | 196 | 4.3 | 8.7 | 0.00 | 0.00 | 0.00 | 55 | 1009.1 |
| 20260506030032 | 70 | 188 | 2.6 | 10.4 | 0.00 | 0.00 | 0.00 | 55 | 1009.1 |
| 20260506024530 | 71 | 202 | 3.5 | 10.4 | 0.00 | 0.00 | 0.00 | 54 | 1009.2 |
| 20260506023028 | 71 | 119 | 2.6 | 7.0 | 0.00 | 0.00 | 0.00 | 53 | 1009.2 |
| 20260506021528 | 71 | 217 | 3.5 | 8.7 | 0.00 | 0.00 | 0.00 | 52 | 1009.2 |
| 20260506020027 | 72 | 250 | 1.7 | 8.7 | 0.00 | 0.00 | 0.00 | 50 | 1009.1 |
| 20260506014526 | 73 | 238 | 5.2 | 11.3 | 0.00 | 0.00 | 0.00 | 49 | 1009.0 |
| 20260506013037 | 73 | 206 | 4.3 | 10.4 | 0.00 | 0.00 | 0.00 | 48 | 1009.0 |
| 20260506011527 | 73 | 254 | 1.7 | 8.7 | 0.00 | 0.00 | 0.00 | 46 | 1008.8 |
| 20260506010026 | 74 | 209 | 1.7 | 7.0 | 0.00 | 0.00 | 0.00 | 45 | 1008.7 |
| 20260506004524 | 74 | 242 | 1.7 | 7.0 | 0.00 | 0.00 | 0.00 | 44 | 1008.5 |
| 20260506003024 | 75 | 241 | 0.9 | 7.0 | 0.00 | 0.00 | 0.00 | 43 | 1008.4 |
| 20260506001523 | 76 | 180 | 6.1 | 12.2 | 0.00 | 0.00 | 0.00 | 42 | 1008.3 |
| 20260506000023 | 76 | 173 | 4.3 | 8.7 | 0.00 | 0.00 | 0.00 | 42 | 1008.1 |
| 20260505234522 | 76 | 230 | 1.7 | 7.0 | 0.00 | 0.00 | 0.00 | 41 | 1008.1 |
| 20260505233027 | 77 | 229 | 1.7 | 10.4 | 0.00 | 0.00 | 0.00 | 41 | 1007.8 |
| 20260505231523 | 77 | 211 | 3.5 | 7.0 | 0.00 | 0.00 | 0.00 | 41 | 1007.8 |
| 20260505230021 | 78 | 162 | 1.7 | 9.6 | 0.00 | 0.00 | 0.00 | 40 | 1007.8 |
| 20260505224520 | 78 | 231 | 5.2 | 12.2 | 0.00 | 0.00 | 0.00 | 38 | 1007.8 |
| 20260505223019 | 79 | 238 | 5.2 | 14.8 | 0.00 | 0.00 | 0.00 | 38 | 1007.9 |
| 20260505221519 | 80 | 114 | 7.8 | 15.6 | 0.00 | 0.00 | 0.00 | 36 | 1007.7 |
| 20260505220030 | 80 | 183 | 7.0 | 14.8 | 0.00 | 0.00 | 0.00 | 36 | 1007.7 |